BTY017 VIDP-VNKT

Flight info

Callsign BTY017
Flight time 1h 13m
Altitude 39000
Route ITBAN7D ITBAN DCT ALI G452 LKN G598 SMR SMR
Aircraft A320/M-SDE3FGHIRWY/LB1

Departure

Time 2025-12-30 08:24
Airport Indira Gandhi International Airport (VIDP)

Arrival

Time 2025-12-30 09:37
Airport Tribhuvan International Airport (VNKT)
Time Latitude Longitude Altitude Speed Heading
2025-12-30 07:43 28.56377 77.11050 751 ft 0 kts 101°
2025-12-30 07:59 28.56391 77.10992 748 ft 3 kts 137°
2025-12-30 07:59 28.56426 77.10982 747 ft 2 kts 193°
2025-12-30 08:00 28.56433 77.10984 750 ft 1 kts 194°
2025-12-30 08:03 28.56345 77.10961 748 ft 7 kts 185°
2025-12-30 08:04 28.56302 77.11030 750 ft 5 kts 106°
2025-12-30 08:04 28.56289 77.11092 749 ft 3 kts 103°
2025-12-30 08:05 28.56281 77.11129 749 ft 2 kts 103°
2025-12-30 08:05 28.56275 77.11155 750 ft 5 kts 103°
2025-12-30 08:06 28.56259 77.11222 749 ft 6 kts 105°
2025-12-30 08:06 28.56242 77.11294 750 ft 4 kts 105°
2025-12-30 08:07 28.56232 77.11335 750 ft 2 kts 105°
2025-12-30 08:07 28.56230 77.11343 750 ft 0 kts 105°
2025-12-30 08:08 28.56219 77.11388 749 ft 3 kts 105°
2025-12-30 08:08 28.56195 77.11486 749 ft 5 kts 105°
2025-12-30 08:09 28.56157 77.11525 748 ft 3 kts 149°
2025-12-30 08:09 28.56118 77.11552 748 ft 4 kts 168°
2025-12-30 08:10 28.56021 77.11610 749 ft 6 kts 124°
2025-12-30 08:10 28.55981 77.11714 749 ft 9 kts 109°
2025-12-30 08:11 28.55952 77.11840 751 ft 7 kts 104°
2025-12-30 08:11 28.55940 77.11891 750 ft 6 kts 104°
2025-12-30 08:12 28.55925 77.11958 751 ft 3 kts 104°
2025-12-30 08:12 28.55921 77.11976 752 ft 2 kts 104°
2025-12-30 08:13 28.55898 77.12078 753 ft 6 kts 104°
2025-12-30 08:13 28.55877 77.12172 750 ft 3 kts 104°
2025-12-30 08:14 28.55878 77.12207 751 ft 5 kts 116°
2025-12-30 08:14 28.55866 77.12193 749 ft 0 kts 296°
2025-12-30 08:15 28.55875 77.12170 751 ft 0 kts 283°
2025-12-30 08:22 28.55913 77.11986 748 ft 63 kts 285°
2025-12-30 08:23 28.56082 77.11258 746 ft 127 kts 284°
2025-12-30 08:23 28.56630 77.08848 1559 ft 162 kts 285°
2025-12-30 08:24 28.57222 77.06318 2864 ft 178 kts 285°
2025-12-30 08:24 28.57937 77.03253 3596 ft 226 kts 285°
2025-12-30 08:25 28.58808 76.99471 4857 ft 260 kts 285°
2025-12-30 08:25 28.60212 76.93277 7453 ft 276 kts 283°
2025-12-30 08:26 28.61088 76.88966 8827 ft 282 kts 271°
2025-12-30 08:26 28.60777 76.86815 8976 ft 280 kts 247°
2025-12-30 08:27 28.58026 76.83867 9002 ft 281 kts 199°
2025-12-30 08:27 28.54105 76.83606 9001 ft 284 kts 181°
2025-12-30 08:28 28.50159 76.83665 9003 ft 284 kts 181°
2025-12-30 08:28 28.46195 76.83716 9002 ft 285 kts 181°
2025-12-30 08:29 28.42231 76.83762 9002 ft 285 kts 181°
2025-12-30 08:29 28.36272 76.83948 9857 ft 291 kts 178°
2025-12-30 08:30 28.32012 76.84341 10725 ft 330 kts 176°
2025-12-30 08:30 28.29737 76.85000 11234 ft 346 kts 159°
2025-12-30 08:31 28.26048 76.88628 12651 ft 367 kts 122°
2025-12-30 08:31 28.23998 76.94005 14048 ft 379 kts 114°
2025-12-30 08:32 28.22004 76.99626 15320 ft 388 kts 114°
2025-12-30 08:32 28.19958 77.05361 16593 ft 397 kts 114°
2025-12-30 08:32 28.18911 77.08272 17209 ft 401 kts 114°
2025-12-30 08:33 28.14148 77.19966 19497 ft 417 kts 120°
2025-12-30 08:34 28.12806 77.22855 20019 ft 421 kts 120°
2025-12-30 08:34 28.10047 77.28781 21082 ft 430 kts 120°
2025-12-30 08:35 28.07231 77.34838 22111 ft 438 kts 120°
2025-12-30 08:35 28.04362 77.41010 23065 ft 447 kts 120°
2025-12-30 08:36 28.01427 77.47308 23906 ft 456 kts 120°
2025-12-30 08:36 27.98411 77.53667 24552 ft 466 kts 124°
2025-12-30 08:37 27.94273 77.59288 25175 ft 467 kts 141°
2025-12-30 08:39 27.82911 77.85695 27540 ft 513 kts 88°
2025-12-30 08:41 27.82171 78.18868 29684 ft 546 kts 103°
2025-12-30 08:43 27.70417 78.51142 31365 ft 565 kts 114°
2025-12-30 08:45 27.57941 78.84085 33175 ft 578 kts 114°
2025-12-30 08:47 27.45162 79.17549 35060 ft 583 kts 114°
2025-12-30 08:48 27.33912 79.46727 36587 ft 579 kts 114°
2025-12-30 08:51 27.19623 79.82328 38210 ft 575 kts 114°
2025-12-30 08:52 27.08111 80.10813 39015 ft 570 kts 115°
2025-12-30 08:55 26.93300 80.47120 39011 ft 570 kts 115°
2025-12-30 08:56 26.81754 80.75170 39016 ft 570 kts 115°
2025-12-30 08:59 26.78479 81.12935 39025 ft 547 kts 75°
2025-12-30 09:01 26.82140 81.46731 39027 ft 548 kts 75°
2025-12-30 09:03 26.86189 81.84866 39032 ft 549 kts 75°
2025-12-30 09:05 26.89277 82.14625 39023 ft 550 kts 75°
2025-12-30 09:07 26.92722 82.48650 39039 ft 550 kts 75°
2025-12-30 09:08 26.95673 82.78463 39046 ft 550 kts 75°
2025-12-30 09:11 26.99481 83.16765 39064 ft 550 kts 75°
2025-12-30 09:13 27.02925 83.50919 39015 ft 550 kts 75°
2025-12-30 09:15 27.06304 83.85189 36324 ft 561 kts 76°
2025-12-30 09:17 27.09460 84.18509 28362 ft 486 kts 79°
2025-12-30 09:19 27.12165 84.47011 25042 ft 463 kts 81°
2025-12-30 09:19 27.12816 84.54161 24611 ft 463 kts 81°
2025-12-30 09:20 27.13484 84.61446 22850 ft 464 kts 81°
2025-12-30 09:20 27.14119 84.68529 20586 ft 448 kts 82°
2025-12-30 09:20 27.14401 84.71947 19576 ft 440 kts 82°
2025-12-30 09:21 27.15148 84.81803 17611 ft 395 kts 82°
2025-12-30 09:22 27.15595 84.87744 16687 ft 377 kts 82°
2025-12-30 09:22 27.16049 84.93562 15754 ft 375 kts 81°
2025-12-30 09:23 27.17425 84.99108 14866 ft 369 kts 59°
2025-12-30 09:23 27.20364 85.03892 14170 ft 373 kts 47°
2025-12-30 09:24 27.23521 85.08433 13460 ft 367 kts 47°
2025-12-30 09:24 27.25047 85.10644 13283 ft 344 kts 47°
2025-12-30 09:24 27.27816 85.14671 12654 ft 317 kts 47°
2025-12-30 09:25 27.32743 85.19197 11905 ft 299 kts 16°
2025-12-30 09:26 27.36653 85.20548 11412 ft 285 kts
2025-12-30 09:26 27.40490 85.20862 10923 ft 277 kts 358°
2025-12-30 09:27 27.44323 85.20864 10445 ft 271 kts 360°
2025-12-30 09:27 27.47996 85.21571 9983 ft 273 kts 14°
2025-12-30 09:28 27.51625 85.22777 9718 ft 269 kts 14°
2025-12-30 09:28 27.53399 85.23433 9585 ft 269 kts 20°
2025-12-30 09:28 27.56584 85.25637 9328 ft 271 kts 39°
2025-12-30 09:29 27.59721 85.30637 8966 ft 261 kts 67°
2025-12-30 09:30 27.60936 85.34398 8722 ft 249 kts 68°
2025-12-30 09:30 27.62107 85.37973 8488 ft 232 kts 67°
2025-12-30 09:31 27.63792 85.40897 8006 ft 220 kts 44°
2025-12-30 09:31 27.65719 85.43226 7805 ft 192 kts 46°
2025-12-30 09:32 27.67526 85.45418 7628 ft 190 kts 45°
2025-12-30 09:32 27.68483 85.46412 7500 ft 188 kts 33°
2025-12-30 09:32 27.70940 85.47220 7076 ft 187 kts 359°
2025-12-30 09:33 27.74160 85.45304 6357 ft 163 kts 306°
2025-12-30 09:34 27.74932 85.43059 5935 ft 152 kts 275°
2025-12-30 09:34 27.74634 85.40753 5552 ft 146 kts 247°
2025-12-30 09:35 27.73536 85.38844 4911 ft 151 kts 223°
2025-12-30 09:35 27.71958 85.37456 4557 ft 140 kts 213°
2025-12-30 09:35 27.71235 85.36728 4575 ft 139 kts 208°
2025-12-30 09:36 27.69629 85.35906 4397 ft 119 kts 206°
2025-12-30 09:36 27.69080 85.35568 4387 ft 13 kts 306°
2025-12-30 09:37 27.69298 85.35630 4393 ft 7 kts 22°
2025-12-30 09:38 27.69370 85.35662 4394 ft 2 kts 21°
2025-12-30 09:38 27.69402 85.35676 4394 ft 5 kts 21°
2025-12-30 09:39 27.69481 85.35712 4396 ft 5 kts 21°
2025-12-30 09:39 27.69622 85.35776 4398 ft 18 kts 22°
2025-12-30 09:40 27.69723 85.35802 4398 ft 15 kts 326°
2025-12-30 09:40 27.69757 85.35730 4398 ft 0 kts 292°